Weather History for Casper, WY

Change the Weather History Date:

Tuesday, July 23, 2013

  Actual Average Record
Temperature  
Mean Temperature 72 °F 72 °F  
Max Temperature 91 °F 89 °F 100 °F (2000)
Min Temperature 52 °F 54 °F 43 °F (1972)
Degree Days  
Heating Degree Days 0 0  
Month to date heating degree days 0 11  
Since 1 June heating degree days 72 147  
Since 1 July heating degree days 0 11  
Cooling Degree Days 7 7  
Month to date cooling degree days 189 134  
Year to date cooling degree days 282 191  
Since 1 June cooling degree days 272 187  
Growing Degree Days 22 (Base 50)    
Moisture  
Dew Point 42 °F    
Average Humidity 48    
Maximum Humidity 83    
Minimum Humidity 12    
Precipitation  
Precipitation 0.00 in 0.05 in 1.14 in (1977)
Month to date precipitation 1.32 1.05  
Year to date precipitation 8.16 7.87  
Snow  
Snow 0.00 in 0.00 in - ()
Month to date snowfall 0.0 0.0  
Since 1 June snowfall 0.0 0.1  
Since 1 July snowfall 0.0 0.0  
Snow Depth 0.00 in    
Sea Level Pressure  
Sea Level Pressure 29.90 in    
Wind  
Wind Speed 6 mph (North)    
Max Wind Speed 14 mph    
Max Gust Speed 17 mph    
Visibility 10 miles    
Events      
T = Trace of Precipitation, MM = Missing Value Source: NWS Daily Summary

Daily Weather History Graph

Daily Weather History Graph

Search for Another Location

Airport:

Trip Planner

Search our weather history database for the weather conditions in past years. The results will help you decide how hot, cold, wet, or windy it might be!

Date:

Astronomy

Jul. 23, 2013 Rise Set
Actual Time 5:48 AM MDT 8:35 PM MDT
Civil Twilight 5:15 AM MDT 9:08 PM MDT
Nautical Twilight 4:33 AM MDT 9:50 PM MDT
Astronomical Twilight 3:44 AM MDT 10:38 PM MDT
Moon 9:01 PM MDT (7/23) 7:03 AM MDT (7/23)
Length of Visible Light 15h 53m
Length of Day
14h 47m
Full, 99% of the Moon is Illuminated
Jul 23
Full
Jul 29
Last Quarter
Aug 6
New
Aug 14
First Quarter
Aug 20
Full

Hourly Weather History & Observations

Time (MDT) Temp. Dew Point Humidity Pressure Visibility Wind Dir Wind Speed Gust Speed Precip Events Conditions
12:53 AM 64.9 °F 44.1 °F 47% 29.80 in 10.0 mi NNE 9.2 mph - N/A   Clear
1:53 AM 59.0 °F 50.0 °F 72% 29.83 in 10.0 mi NNW 3.5 mph - N/A   Clear
2:53 AM 55.9 °F 48.9 °F 77% 29.84 in 10.0 mi NW 6.9 mph - N/A   Clear
3:53 AM 55.0 °F 46.9 °F 74% 29.85 in 10.0 mi WNW 5.8 mph - N/A   Clear
4:53 AM 54.0 °F 48.0 °F 80% 29.86 in 10.0 mi NNW 4.6 mph - N/A   Clear
5:53 AM 53.1 °F 48.0 °F 83% 29.89 in 10.0 mi SW 4.6 mph - N/A   Clear
6:53 AM 59.0 °F 48.9 °F 69% 29.91 in 10.0 mi West 4.6 mph - N/A   Clear
7:53 AM 66.9 °F 51.1 °F 57% 29.91 in 10.0 mi Calm Calm - N/A   Clear
8:53 AM 73.0 °F 52.0 °F 48% 29.94 in 10.0 mi Calm Calm - N/A   Clear
9:53 AM 75.9 °F 50.0 °F 40% 29.93 in 10.0 mi Variable 4.6 mph - N/A   Clear
10:53 AM 81.0 °F 48.9 °F 33% 29.94 in 10.0 mi Variable 3.5 mph - N/A   Clear
11:53 AM 84.0 °F 42.1 °F 23% 29.94 in 10.0 mi Variable 5.8 mph - N/A   Clear
12:53 PM 87.1 °F 41.0 °F 20% 29.91 in 10.0 mi NE 6.9 mph - N/A   Clear
1:53 PM 87.1 °F 37.0 °F 17% 29.92 in 10.0 mi SW 4.6 mph - N/A   Clear
2:53 PM 88.0 °F 36.0 °F 16% 29.92 in 10.0 mi Variable 3.5 mph - N/A   Clear
3:53 PM 90.0 °F 33.1 °F 13% 29.91 in 10.0 mi Variable 3.5 mph - N/A   Clear
4:53 PM 90.0 °F 30.9 °F 12% 29.90 in 10.0 mi WNW 4.6 mph - N/A   Clear
5:53 PM 89.1 °F 30.9 °F 12% 29.89 in 10.0 mi NE 5.8 mph - N/A   Clear
6:53 PM 88.0 °F 32.0 °F 14% 29.88 in 10.0 mi East 6.9 mph - N/A   Clear
7:53 PM 84.0 °F 33.1 °F 16% 29.88 in 10.0 mi ENE 12.7 mph - N/A   Clear
8:53 PM 80.1 °F 35.1 °F 20% 29.91 in 10.0 mi ENE 12.7 mph - N/A   Clear
9:53 PM 73.9 °F 37.0 °F 26% 29.95 in 10.0 mi NE 10.4 mph - N/A   Clear
10:53 PM 71.1 °F 37.0 °F 29% 29.96 in 10.0 mi NE 9.2 mph - N/A   Clear
11:53 PM 70.0 °F 42.1 °F 36% 29.97 in 10.0 mi ENE 6.9 mph - N/A   Clear